Torna al catalogo

STARLINK-37056

AttivoComunicazioniVLEO
NORAD 68260·PAYLOAD·🇺🇸 United States

Lanciato Mar 17, 2026 da Vandenberg Space Force Base

Loading…

Prossimi Passaggi (prossime 24 ore)

TLE

AggiornatoSource: CelesTrak SupGP

Epoca: Sep 14, 2026, 23:27 UTC

1 68260C 26054AE  26257.97756944 -.00004141  00000+0 -12238-3 0  2579
2 68260  53.1563 127.3048 0001515  91.4636  70.6828 15.34384223    10

Traccia STARLINK-37056 in tempo reale con AllMySat

Download on the App Store